sat.trackr.live / text

‹ back to catalog

STARLINK-35047

NORAD 65806 · 2025-218R

PAYLOAD ACTIVE UNKNOWN

§ Identity

Operator
Country
US
Launch date
2025-09-26
Launch site
AFWTR
Launch vehicle
Mass (kg)
RCS (m²)

Purposes: comms

External: N2YO · Heavens-Above · Gunter

§ Orbital elements

Epoch: 2026-05-25T03:27:09.921312Z

Period
95.64 min
Inclination
97.4505°
Eccentricity
0.0002028
Mean motion
15.05647514 rev/d
Perigee alt
548.1 km
Apogee alt
550.9 km
Semi-major
6,927.7 km
B*
5.8506e-4
RAAN
7.9306°
Arg perigee
78.3266°
Mean anomaly
281.8189°
Rev number
3,647

§ Raw data

STARLINK-350471 65806U 25218R   26145.14386483  .00008392  00000+0  58506-3 0  99962 65806  97.4505   7.9306 0002028  78.3266 281.8189 15.05647514 36471

JSON: /api/v1/satellites/65806 · /tle

For live sub-satellite position, see the globe view (requires WebGL).

§ Visibility from observer

Set your observer location to see the next 7 days of passes ≥ 10°. The values pass through the URL so the page stays shareable.

No JS? Fill the form by hand. The geolocation button needs JavaScript.